Location: Waco, TX
(31.5480°N, 97.1670°W)
Time: 20:25:21
(UTC-05:00)

ISS - Pass Details

Date: 10 August 2018
Orbit: 402 x 409 km, 51.6° (Epoch: 15 August)

Event Time Altitude Azimuth Distance (km) Brightness Sun altitude
Rises 14:18:23 0° 261° (W) 2,303 0.2 70.9°
Reaches altitude 10° 14:21:01 10° 284° (WNW) 1,447 -0.8 70.6°
Maximum altitude 14:23:09 16° 325° (NW) 1,135 -1.4 70.3°
Drops below altitude 10° 14:25:17 10° 6° (N) 1,452 -1.1 70.1°
Sets 14:27:56 0° 29° (NNE) 2,314 -0.2 69.7°
